You are listening to:
KSCH Gnd/Twr - Schenectady, New York, United States

KSCH 181145Z 03003KT 10SM OVC100 14/13 A3002 RMK FIRST

If stream doesn't start automatically press the play button
If stream stops then reload player then press play